Location: Москва
(55.7518°N, 37.5952°E)
Time: 05:55:53
(UTC+03:00)

ISS - Pass Details

Date: 28 January 2021
Orbit: 417 x 422 km, 51.6° (Epoch: 18 May)

Event Time Altitude Azimuth Distance (km) Brightness Sun altitude
Rises 17:23:49 0° 237° (WSW) 2,366 2.7 -4.3°
Reaches altitude 10° 17:26:02 10° 227° (SW) 1,505 0.6 -4.6°
Maximum altitude 17:29:04 31° 163° (SSE) 766 -2.3 -5.0°
Drops below altitude 10° 17:32:07 10° 100° (E) 1,512 -1.4 -5.4°
Enters shadow 17:33:17 - 93° (E) 1,955 -0.9 -5.5°
